Time,TemperatureF,DewpointF,PressureIn,WindDirection,WindDirectionDegrees,WindSpeedMPH,WindSpeedGustMPH,Humidity,HourlyPrecipIn,Conditions,Clouds,dailyrainin,SoftwareType,DateUTC
2013-02-26 00:08:00,31.6,26.0,29.92,NE,53,1.0,8.0,81,0.00,,,0.00,weatherlink.com 1.10,2013-02-26 06:08:00,
2013-02-26 00:23:00,31.3,26.0,29.92,ENE,68,0.0,7.0,82,0.00,,,0.00,weatherlink.com 1.10,2013-02-26 06:23:00,
2013-02-26 00:38:00,31.2,26.0,29.92,North,9,1.0,6.0,82,0.00,,,0.00,weatherlink.com 1.10,2013-02-26 06:38:00,
2013-02-26 00:53:00,31.1,26.0,29.91,NNE,20,3.0,7.0,82,0.00,,,0.00,weatherlink.com 1.10,2013-02-26 06:53:00,
2013-02-26 01:08:00,31.0,26.0,29.91,NE,44,2.0,6.0,83,0.00,,,0.00,weatherlink.com 1.10,2013-02-26 07:08:00,
2013-02-26 01:23:00,30.8,27.0,29.90,NNE,26,4.0,6.0,84,0.00,,,0.00,weatherlink.com 1.10,2013-02-26 07:23:00,
2013-02-26 01:38:00,30.7,27.0,29.90,ENE,68,2.0,7.0,85,0.00,,,0.00,weatherlink.com 1.10,2013-02-26 07:38:00,
2013-02-26 01:53:00,30.9,27.0,29.89,ENE,57,4.0,8.0,85,0.00,,,0.00,weatherlink.com 1.10,2013-02-26 07:53:00,
2013-02-26 02:08:00,30.9,27.0,29.87,NE,36,4.0,10.0,86,0.00,,,0.00,weatherlink.com 1.10,2013-02-26 08:08:00,
2013-02-26 02:23:00,30.8,27.0,29.85,NE,50,3.0,7.0,86,0.00,,,0.00,weatherlink.com 1.10,2013-02-26 08:23:00,
2013-02-26 02:38:00,31.0,28.0,29.84,NE,38,2.0,8.0,87,0.00,,,0.00,weatherlink.com 1.10,2013-02-26 08:38:00,
2013-02-26 02:53:00,31.5,28.0,29.83,NNE,30,6.0,11.0,87,0.00,,,0.00,weatherlink.com 1.10,2013-02-26 08:53:00,
2013-02-26 03:08:00,31.8,28.0,29.83,NE,34,7.0,9.0,85,0.00,,,0.00,weatherlink.com 1.10,2013-02-26 09:08:00,
2013-02-26 03:23:00,32.0,28.0,29.81,NNE,33,5.0,12.0,85,0.00,,,0.00,weatherlink.com 1.10,2013-02-26 09:23:00,
2013-02-26 03:39:00,31.9,28.0,29.81,NE,53,3.0,11.0,85,0.00,,,0.00,weatherlink.com 1.10,2013-02-26 09:39:00,
2013-02-26 03:54:00,31.2,28.0,29.80,NNW,345,5.0,7.0,87,0.00,,,0.00,weatherlink.com 1.10,2013-02-26 09:54:00,
2013-02-26 04:09:00,31.2,28.0,29.80,ENE,61,2.0,8.0,88,0.00,,,0.00,weatherlink.com 1.10,2013-02-26 10:09:00,
2013-02-26 04:24:00,31.5,28.0,29.79,NNE,31,2.0,12.0,87,0.00,,,0.00,weatherlink.com 1.10,2013-02-26 10:24:00,
2013-02-26 04:39:00,31.9,28.0,29.79,NE,49,5.0,14.0,86,0.00,,,0.00,weatherlink.com 1.10,2013-02-26 10:39:00,
2013-02-26 04:54:00,32.2,28.0,29.79,NE,42,6.0,9.0,85,0.00,,,0.00,weatherlink.com 1.10,2013-02-26 10:54:00,
2013-02-26 05:09:00,32.5,28.0,29.78,NNE,32,3.0,12.0,84,0.00,,,0.00,weatherlink.com 1.10,2013-02-26 11:09:00,
2013-02-26 05:24:00,32.5,28.0,29.77,ENE,59,7.0,11.0,84,0.00,,,0.00,weatherlink.com 1.10,2013-02-26 11:24:00,
2013-02-26 05:39:00,32.5,28.0,29.75,NNE,30,9.0,10.0,84,0.00,,,0.00,weatherlink.com 1.10,2013-02-26 11:39:00,
2013-02-26 05:54:00,32.7,28.0,29.75,ENE,75,4.0,17.0,83,0.00,,,0.00,weatherlink.com 1.10,2013-02-26 11:54:00,
2013-02-26 06:09:00,32.6,28.0,29.73,NE,53,5.0,11.0,83,0.00,,,0.00,weatherlink.com 1.10,2013-02-26 12:09:00,
2013-02-26 06:24:00,32.6,28.0,29.71,NE,50,7.0,14.0,82,0.00,,,0.00,weatherlink.com 1.10,2013-02-26 12:24:00,
2013-02-26 06:39:00,32.7,28.0,29.70,NNE,32,11.0,15.0,82,0.00,,,0.00,weatherlink.com 1.10,2013-02-26 12:39:00,
2013-02-26 06:54:00,32.6,28.0,29.70,NE,46,2.0,19.0,82,0.00,,,0.00,weatherlink.com 1.10,2013-02-26 12:54:00,
2013-02-26 07:09:00,32.4,28.0,29.72,NNE,26,6.0,15.0,82,0.00,,,0.00,weatherlink.com 1.10,2013-02-26 13:09:00,
2013-02-26 07:24:00,32.9,27.0,29.74,East,90,13.0,13.0,80,0.00,,,0.00,weatherlink.com 1.10,2013-02-26 13:24:00,
2013-02-26 07:39:00,33.1,27.0,29.73,NNE,27,7.0,15.0,79,0.00,,,0.00,weatherlink.com 1.10,2013-02-26 13:39:00,
2013-02-26 07:54:00,33.0,27.0,29.71,NE,38,9.0,15.0,79,0.00,,,0.00,weatherlink.com 1.10,2013-02-26 13:54:00,
2013-02-26 08:09:00,33.0,27.0,29.70,NE,34,4.0,13.0,79,0.00,,,0.00,weatherlink.com 1.10,2013-02-26 14:09:00,
2013-02-26 08:24:00,33.1,27.0,29.71,NE,46,5.0,12.0,79,0.00,,,0.00,weatherlink.com 1.10,2013-02-26 14:24:00,
2013-02-26 08:39:00,33.2,27.0,29.71,NNE,17,2.0,12.0,79,0.00,,,0.00,weatherlink.com 1.10,2013-02-26 14:39:00,
2013-02-26 08:54:00,33.0,27.0,29.70,NNE,22,7.0,14.0,79,0.00,,,0.00,weatherlink.com 1.10,2013-02-26 14:54:00,
2013-02-26 09:09:00,33.0,27.0,29.68,ENE,61,5.0,17.0,79,0.00,,,0.00,weatherlink.com 1.10,2013-02-26 15:09:00,
2013-02-26 09:24:00,33.1,27.0,29.68,NE,43,5.0,13.0,78,0.00,,,0.00,weatherlink.com 1.10,2013-02-26 15:24:00,
2013-02-26 09:39:00,33.4,27.0,29.67,North,5,3.0,13.0,77,0.00,,,0.00,weatherlink.com 1.10,2013-02-26 15:39:00,
2013-02-26 09:54:00,33.7,27.0,29.66,NNE,19,6.0,12.0,77,0.00,,,0.00,weatherlink.com 1.10,2013-02-26 15:54:00,
2013-02-26 10:09:00,33.4,27.0,29.65,North,5,5.0,14.0,77,0.00,,,0.00,weatherlink.com 1.10,2013-02-26 16:09:00,
2013-02-26 10:24:00,33.5,27.0,29.64,NNE,24,11.0,12.0,78,0.00,,,0.00,weatherlink.com 1.10,2013-02-26 16:24:00,
2013-02-26 10:39:00,33.5,27.0,29.63,NNE,23,10.0,13.0,78,0.00,,,0.00,weatherlink.com 1.10,2013-02-26 16:39:00,
2013-02-26 10:54:00,33.6,27.0,29.63,NNW,348,8.0,13.0,77,0.00,,,0.00,weatherlink.com 1.10,2013-02-26 16:54:00,
2013-02-26 11:09:00,33.4,27.0,29.64,NE,51,5.0,18.0,77,0.00,,,0.00,weatherlink.com 1.10,2013-02-26 17:09:00,
2013-02-26 11:24:00,33.1,27.0,29.64,NE,36,5.0,14.0,77,0.00,,,0.00,weatherlink.com 1.10,2013-02-26 17:24:00,
2013-02-26 11:39:00,33.2,27.0,29.63,NNE,31,7.0,14.0,77,0.00,,,0.00,weatherlink.com 1.10,2013-02-26 17:39:00,
2013-02-26 11:54:00,33.2,27.0,29.62,NNW,331,5.0,17.0,77,0.00,,,0.00,weatherlink.com 1.10,2013-02-26 17:54:00,
2013-02-26 12:09:00,33.0,26.0,29.62,North,5,6.0,17.0,76,0.00,,,0.00,weatherlink.com 1.10,2013-02-26 18:09:00,
2013-02-26 12:25:00,32.9,26.0,29.61,NNW,329,7.0,15.0,77,0.00,,,0.00,weatherlink.com 1.10,2013-02-26 18:25:00,
2013-02-26 12:40:00,33.0,27.0,29.61,North,9,8.0,16.0,78,0.00,,,0.00,weatherlink.com 1.10,2013-02-26 18:40:00,
2013-02-26 12:55:00,32.7,26.0,29.60,NE,55,4.0,17.0,77,0.00,,,0.00,weatherlink.com 1.10,2013-02-26 18:55:00,
2013-02-26 13:10:00,32.7,26.0,29.59,NNE,15,7.0,18.0,77,0.00,,,0.00,weatherlink.com 1.10,2013-02-26 19:10:00,
2013-02-26 13:25:00,32.9,27.0,29.58,North,350,8.0,14.0,78,0.00,,,0.00,weatherlink.com 1.10,2013-02-26 19:25:00,
2013-02-26 13:40:00,33.0,27.0,29.58,NE,51,5.0,19.0,77,0.00,,,0.00,weatherlink.com 1.10,2013-02-26 19:40:00,
2013-02-26 13:55:00,32.8,27.0,29.57,North,360,5.0,18.0,78,0.01,,,0.01,weatherlink.com 1.10,2013-02-26 19:55:00,
2013-02-26 14:10:00,32.6,26.0,29.56,NNW,338,4.0,14.0,77,0.01,,,0.01,weatherlink.com 1.10,2013-02-26 20:10:00,
2013-02-26 14:25:00,32.4,26.0,29.55,NNW,335,6.0,22.0,78,0.01,,,0.01,weatherlink.com 1.10,2013-02-26 20:25:00,
2013-02-26 14:40:00,32.0,26.0,29.55,North,360,6.0,19.0,79,0.01,,,0.01,weatherlink.com 1.10,2013-02-26 20:40:00,
2013-02-26 14:55:00,31.4,27.0,29.55,North,355,10.0,22.0,83,0.00,,,0.01,weatherlink.com 1.10,2013-02-26 20:55:00,
2013-02-26 15:10:00,30.6,28.0,29.55,NE,36,15.0,17.0,88,0.00,,,0.01,weatherlink.com 1.10,2013-02-26 21:10:00,
2013-02-26 15:25:00,29.9,28.0,29.56,NNE,20,5.0,16.0,92,0.00,,,0.01,weatherlink.com 1.10,2013-02-26 21:25:00,
2013-02-26 15:40:00,29.6,28.0,29.57,ENE,59,7.0,16.0,94,0.00,,,0.01,weatherlink.com 1.10,2013-02-26 21:40:00,
2013-02-26 15:55:00,29.7,28.0,29.57,NE,35,10.0,15.0,94,0.00,,,0.01,weatherlink.com 1.10,2013-02-26 21:55:00,
2013-02-26 16:10:00,29.6,28.0,29.57,NNW,346,6.0,17.0,94,0.00,,,0.01,weatherlink.com 1.10,2013-02-26 22:10:00,
2013-02-26 16:25:00,29.6,28.0,29.58,NE,40,4.0,18.0,94,0.00,,,0.01,weatherlink.com 1.10,2013-02-26 22:25:00,
2013-02-26 16:40:00,29.7,28.0,29.58,North,351,5.0,12.0,94,0.00,,,0.01,weatherlink.com 1.10,2013-02-26 22:40:00,
2013-02-26 16:55:00,29.6,28.0,29.58,North,360,6.0,16.0,94,0.00,,,0.01,weatherlink.com 1.10,2013-02-26 22:55:00,
2013-02-26 17:10:00,29.5,28.0,29.58,NNE,22,4.0,23.0,94,0.00,,,0.01,weatherlink.com 1.10,2013-02-26 23:10:00,
2013-02-26 17:25:00,29.5,28.0,29.58,NNE,16,2.0,17.0,94,0.00,,,0.01,weatherlink.com 1.10,2013-02-26 23:25:00,
2013-02-26 17:40:00,29.6,28.0,29.58,WNW,302,9.0,14.0,94,0.00,,,0.01,weatherlink.com 1.10,2013-02-26 23:40:00,
2013-02-26 17:55:00,29.7,28.0,29.59,NNW,344,3.0,14.0,94,0.00,,,0.01,weatherlink.com 1.10,2013-02-26 23:55:00,
2013-02-26 18:10:00,29.8,28.0,29.59,North,360,11.0,12.0,94,0.00,,,0.01,weatherlink.com 1.10,2013-02-27 00:10:00,
2013-02-26 18:25:00,30.1,28.0,29.59,NE,36,3.0,15.0,93,0.00,,,0.01,weatherlink.com 1.10,2013-02-27 00:25:00,
2013-02-26 18:40:00,30.2,29.0,29.59,NE,45,7.0,14.0,94,0.00,,,0.01,weatherlink.com 1.10,2013-02-27 00:40:00,
2013-02-26 18:55:00,30.2,29.0,29.60,North,5,3.0,13.0,94,0.00,,,0.01,weatherlink.com 1.10,2013-02-27 00:55:00,
2013-02-26 19:10:00,30.2,29.0,29.60,NNW,348,6.0,14.0,94,0.00,,,0.01,weatherlink.com 1.10,2013-02-27 01:10:00,
2013-02-26 19:25:00,30.1,29.0,29.59,North,360,2.0,17.0,94,0.00,,,0.01,weatherlink.com 1.10,2013-02-27 01:25:00,
2013-02-26 19:40:00,30.2,29.0,29.59,NNW,344,4.0,14.0,94,0.00,,,0.01,weatherlink.com 1.10,2013-02-27 01:40:00,
2013-02-26 19:55:00,30.3,29.0,29.59,North,5,3.0,13.0,94,0.00,,,0.01,weatherlink.com 1.10,2013-02-27 01:55:00,
2013-02-26 20:10:00,30.3,29.0,29.59,North,355,3.0,13.0,94,0.00,,,0.01,weatherlink.com 1.10,2013-02-27 02:10:00,
2013-02-26 20:25:00,30.4,29.0,29.59,North,350,4.0,13.0,93,0.00,,,0.01,weatherlink.com 1.10,2013-02-27 02:25:00,
2013-02-26 20:40:00,30.3,29.0,29.59,North,11,6.0,14.0,93,0.00,,,0.01,weatherlink.com 1.10,2013-02-27 02:40:00,
2013-02-26 20:55:00,30.2,29.0,29.59,NE,40,10.0,18.0,94,0.00,,,0.01,weatherlink.com 1.10,2013-02-27 02:55:00,
2013-02-26 21:10:00,30.2,29.0,29.59,NNE,13,6.0,11.0,94,0.00,,,0.01,weatherlink.com 1.10,2013-02-27 03:10:00,
2013-02-26 21:25:00,30.1,29.0,29.58,NNE,14,5.0,15.0,94,0.00,,,0.01,weatherlink.com 1.10,2013-02-27 03:25:00,
2013-02-26 21:40:00,30.2,29.0,29.58,NNE,22,9.0,16.0,94,0.00,,,0.01,weatherlink.com 1.10,2013-02-27 03:40:00,
2013-02-26 21:55:00,30.2,29.0,29.58,NE,42,4.0,12.0,94,0.00,,,0.01,weatherlink.com 1.10,2013-02-27 03:55:00,
2013-02-26 22:10:00,30.2,29.0,29.58,NNE,27,2.0,11.0,94,0.00,,,0.01,weatherlink.com 1.10,2013-02-27 04:10:00,
2013-02-26 22:25:00,30.1,29.0,29.59,NNW,348,6.0,10.0,94,0.00,,,0.01,weatherlink.com 1.10,2013-02-27 04:25:00,
2013-02-26 22:40:00,30.0,28.0,29.58,NNW,341,5.0,12.0,93,0.00,,,0.01,weatherlink.com 1.10,2013-02-27 04:40:00,
2013-02-26 22:55:00,29.9,28.0,29.58,ENE,65,12.0,15.0,93,0.00,,,0.01,weatherlink.com 1.10,2013-02-27 04:55:00,
2013-02-26 23:10:00,29.9,28.0,29.58,North,355,6.0,14.0,93,0.00,,,0.01,weatherlink.com 1.10,2013-02-27 05:10:00,
2013-02-26 23:25:00,29.8,28.0,29.58,North,5,5.0,10.0,93,0.00,,,0.01,weatherlink.com 1.10,2013-02-27 05:25:00,
2013-02-26 23:40:00,29.7,28.0,29.58,North,360,1.0,12.0,94,0.00,,,0.01,weatherlink.com 1.10,2013-02-27 05:40:00,
2013-02-26 23:55:00,29.4,28.0,29.58,NNW,333,5.0,12.0,94,0.00,,,0.01,weatherlink.com 1.10,2013-02-27 05:55:00,